Showing default

NAVSTAR 76 (USA 266), 41328

Orbit data source: Space-Track

NAVSTAR 76 (USA 266), 41328 is a payload satellite owned by USAF SMC (US) in MEO that was launched on Fri, 05 Feb 2016 UTC via an ATLAS V 401 launch vehicle from the Air Force Eastern Test Range (AFETR). Payload-class satellites include a variety of spacecraft equipped with specific instruments for various scientific and technological missions. These include communications satellites like Starlink; space stations such as the ISS; scientific satellites like the Hubble; Earth observation satellites from companies like Planet Labs, Umbra, and HawkEye 360; GPS; miniature CubeSats for education and research; and military/defense satellites.

Loading next visibility...
Identifier
41328, 2016-007A
Orbit
MEO
Country
Flag of USUS
Related business
Manufacturer
Boeing/ES
Mission
Operational Defense Navigation
Bus & Motor
GPS IIF, AOCS
Mass
1,630 kg wet, ~1,500 kg dry
Launch date (UTC)
2016-02-05 (10 years ago)
Launch vehicle
ATLAS V 401
Launch site
Air Force Eastern Test Range (AFETR)
Object type
Payload
Rocket body
Debris
Shape & HBR
Box + 2 Pan, 9.0 m
Radar Cross Section
13.960 m², Large (>1 m²)

Expand to show TLE details & history
Last TLE update: 4 days ago

TLE from 4 days ago
0 NAVSTAR 76 (USA 266)
1 41328U 16007A   25285.06828471  .00000029  00000-0  00000-0 0  9991
2 41328  55.3687  99.3039 0089398 242.5692 116.5476  2.00563887 70864
Epoch: 2025-10-12T01:38Z
TLE epoch observation values (Epoch: 2025-10-12T01:38:19.798Z)
Latitude
-0.00002°
Longitude
53.81957°
Altitude
20,289.998 km
Speed
3.858 km/s
True Right ascension
06h 37m 10s
True Declination
0° 00' 00"
Sunlit
Object was in daylight at epoch
Visualization orbit readout
Latitude
Unknown
Longitude
Unknown
Altitude
Unknown
Speed
Unknown
Apparent Right ascension
Unknown
Apparent Declination
Unknown
Sunlit
N/A
Visualization observer readout
Local Sidereal Time
13:52:12
Azimuth
Unknown
Elevation
Unknown
Doppler factor
Unknown
Orbital elements
Apogee altitude
20,419.62 km
Perigee altitude
19,944.732 km
Semi-major axis
26,560.313 km
Eccentricity
0.00894
Inclination
55.3687°
RAAN
99.3039°
Arg. of periapsis
242.5692°
True anomaly
117.45942°
Mean anomaly
116.5476°
Eccentric anomaly
117.00397°
Mean motion
0.50141 °/min
Orbital period
717.97 mins
BSTAR
0
Loading maneuver chart data...
Computing Atmospheric mass density...
Loading historical data...
Loading historical data...
Loading historical data...
Loading historical data...
Loading historical data...
Loading historical data...
Loading historical data...
Other satellites on launch #7 in the year 2016 (2016-02-05 UTC)

Documentation

Showing up to 5 results
|